Cotulla, TX

11:49 AM CST on November 15, 2019 (GMT -0600)
Cotulla-La Salle County

Weather History for KCOT - August, 2019

Change the Weather History Date:

Sunday, August 18, 2019

  Actual Average Record
Temperature  
Mean Temperature 92 °F -  
Max Temperature 107 °F 96 °F 107 °F (2019)
Min Temperature 79 °F 73 °F 73 °F (1999)
Cooling Degree Days 28    
Growing Degree Days 42 (Base 50)    
Moisture  
Dew Point 69 °F    
Average Humidity 55    
Maximum Humidity 84    
Minimum Humidity 20    
Precipitation  
Precipitation 0.00 in - - ()
Sea Level Pressure  
Sea Level Pressure 29.82 in    
Wind  
Wind Speed 11 mph (SE)    
Max Wind Speed 24 mph    
Max Gust Speed 30 mph    
Visibility 9 miles    
Events      
Averages and records for this station are not official NWS values.
T = Trace of Precipitation, MM = Missing Value Source: NWS Daily Summary

Daily Weather History Graph

Daily Weather History Graph

Search for Another Location

Airport or City:

Astronomy

Aug. 18, 2019 Rise Set
Actual Time 7:07 AM CDT 8:13 PM CDT
Civil Twilight 6:43 AM CDT 8:37 PM CDT
Nautical Twilight 6:14 AM CDT 9:06 PM CDT
Astronomical Twilight 5:44 AM CDT 9:36 PM CDT
Moon 10:21 PM CDT (8/18) 9:43 AM CDT (8/18)
Length of Visible Light 13h 54m
Length of Day
13h 05m
Waning Gibbous, 91% of the Moon is Illuminated
Aug 18
Waning Gibbous
Aug 23
Last Quarter
Aug 30
New
Sep 5
First Quarter
Sep 13
Full

Hourly Weather History & Observations

Time (CDT) Temp. Heat Index Dew Point Humidity Pressure Visibility Wind Dir Wind Speed Gust Speed Precip Events Conditions
12:53 AM 86.0 °F 90.1 °F 69.1 °F 57% 29.81 in 10.0 mi SSE 15.0 mph - N/A   Clear
1:53 AM 84.9 °F 88.8 °F 69.1 °F 59% 29.81 in 10.0 mi SSE 13.8 mph - N/A   Clear
2:53 AM 82.9 °F 87.0 °F 70.0 °F 65% 29.81 in 10.0 mi SSE 9.2 mph - N/A   Clear
3:53 AM 82.0 °F 86.3 °F 71.1 °F 69% 29.82 in 10.0 mi SSE 8.1 mph - N/A   Clear
4:53 AM 81.0 °F 84.9 °F 71.1 °F 72% 29.82 in 10.0 mi SE 9.2 mph - N/A   Clear
5:53 AM 80.1 °F 84.2 °F 73.0 °F 79% 29.82 in 9.0 mi SSE 11.5 mph - N/A   Clear
6:53 AM 79.0 °F - 73.9 °F 84% 29.83 in 8.0 mi ESE 5.8 mph - N/A   Partly Cloudy
7:08 AM 79.0 °F - 73.9 °F 84% 29.85 in 8.0 mi ESE 6.9 mph - N/A   Mostly Cloudy
7:33 AM 79.0 °F - 73.9 °F 84% 29.86 in 7.0 mi ESE 6.9 mph - N/A   Partly Cloudy
7:53 AM 80.1 °F 84.5 °F 73.9 °F 81% 29.84 in 7.0 mi ESE 9.2 mph - N/A   Clear
8:53 AM 82.9 °F 89.4 °F 73.9 °F 74% 29.85 in 7.0 mi SSE 8.1 mph - N/A   Clear
9:13 AM 84.0 °F 91.2 °F 73.9 °F 72% 29.88 in 8.0 mi SE 12.7 mph - N/A   Mostly Cloudy
9:53 AM 86.0 °F 93.8 °F 73.9 °F 67% 29.86 in 8.0 mi SE 12.7 mph 17.3 mph N/A   Mostly Cloudy
10:53 AM 90.0 °F 96.9 °F 72.0 °F 55% 29.86 in 9.0 mi SSE 11.5 mph - N/A   Partly Cloudy
11:53 AM 93.0 °F 99.0 °F 70.0 °F 47% 29.86 in 10.0 mi South 10.4 mph - N/A   Partly Cloudy
12:53 PM 96.1 °F 101.0 °F 68.0 °F 40% 29.84 in 10.0 mi Variable 5.8 mph 18.4 mph N/A   Clear
1:53 PM 99.0 °F 102.9 °F 66.0 °F 34% 29.82 in 10.0 mi Variable 5.8 mph - N/A   Clear
2:53 PM 102.9 °F 106.1 °F 64.0 °F 28% 29.79 in 10.0 mi Variable 6.9 mph 19.6 mph N/A   Clear
3:53 PM 104.0 °F 105.3 °F 61.0 °F 24% 29.77 in 10.0 mi Variable 4.6 mph 17.3 mph N/A   Clear
4:53 PM 105.1 °F 105.7 °F 59.0 °F 22% 29.74 in 10.0 mi South 8.1 mph 18.4 mph N/A   Clear
5:53 PM 106.0 °F 105.8 °F 57.0 °F 20% 29.73 in 10.0 mi South 10.4 mph - N/A   Partly Cloudy
6:53 PM 105.1 °F 105.0 °F 57.9 °F 21% 29.73 in 10.0 mi South 8.1 mph - N/A   Clear
7:53 PM 102.0 °F 102.2 °F 59.0 °F 24% 29.74 in 10.0 mi SE 12.7 mph - N/A   Partly Cloudy
8:53 PM 95.0 °F 102.5 °F 71.1 °F 46% 29.77 in 10.0 mi SE 24.2 mph 29.9 mph N/A   Partly Cloudy
9:53 PM 91.0 °F 98.2 °F 72.0 °F 53% 29.80 in 10.0 mi ESE 18.4 mph 29.9 mph N/A   Clear
10:53 PM 89.1 °F 96.0 °F 72.0 °F 57% 29.84 in 10.0 mi SE 19.6 mph - N/A   Clear
11:53 PM 87.1 °F 92.8 °F 71.1 °F 59% 29.87 in 10.0 mi SE 18.4 mph 24.2 mph N/A   Clear